Theta_e
308 311 316 317 319 319 319 317 317 320 319 317 318 317 313 317 322 318 320 319 320 340 346 350 350 350 351 350 353 353 353 356 354 355 356 351 344 343 342 341 341 339 342 343 339 337 342 341 339 337 332 331 331 332 333 329 327 328 327 329 331 332 333 330 331 330 330 329 331 335 338 339 341 341 341 341 341 341 341 340 339 337 336 337 337 337 336 335 337 337 337 337 336 336 336 336 335
310 311 314 318 319 318 320 319 320 322 318 314 314 317 315 317 322 317 320 316 322 346 349 350 353 353 351 351 354 355 355 353 350 352 350 346 344 344 342 342 341 340 341 342 339 336 340 341 339 338 333 331 331 332 335 333 328 328 329 329 329 331 332 331 332 332 330 331 332 336 339 341 341 341 341 341 341 341 341 340 339 338 337 337 338 338 337 335 335 336 336 336 335 335 335 336 334
309 308 312 318 316 316 321 320 321 320 315 310 310 318 317 317 321 316 318 315 327 346 349 350 353 350 350 358 360 357 357 352 348 348 346 345 346 345 345 344 341 341 340 341 339 337 339 341 340 338 334 331 331 332 335 336 332 328 329 330 331 330 331 330 331 330 329 329 330 332 337 340 340 341 340 340 340 340 340 341 340 340 339 338 338 337 338 337 334 333 334 335 334 334 335 335 334
307 307 313 318 316 317 324 323 326 322 315 313 310 318 322 321 320 315 316 317 333 349 349 353 355 349 350 360 356 353 355 352 349 347 346 345 344 346 345 344 342 341 340 342 341 338 340 341 341 339 335 331 331 332 335 337 336 333 330 330 332 331 331 331 330 330 329 329 329 329 333 338 339 339 339 339 339 339 339 340 340 340 339 339 339 339 339 338 336 332 333 335 334 335 335 335 334
307 311 313 316 319 319 322 321 326 322 314 316 314 319 326 324 319 315 317 320 336 346 346 355 356 349 349 352 350 353 355 353 350 346 347 344 344 345 344 343 342 342 342 342 341 339 340 341 341 339 335 331 331 332 335 338 338 337 336 335 335 334 331 330 330 329 328 328 328 329 331 335 338 338 339 339 338 339 339 339 339 338 337 338 339 338 337 337 338 335 334 334 336 336 336 336 335
310 313 312 313 316 316 319 317 320 320 316 318 317 321 323 320 318 316 316 322 340 345 347 356 354 351 352 349 348 351 350 351 350 346 345 344 344 343 343 343 341 342 342 341 341 340 341 342 342 340 335 331 331 332 335 338 338 338 337 338 338 336 333 330 330 328 328 329 330 331 332 335 336 336 338 339 338 339 338 338 338 337 336 336 337 337 336 335 335 335 333 333 336 337 336 336 335
311 312 315 316 315 316 323 321 321 321 318 318 318 321 320 317 317 315 316 315 330 347 353 355 349 351 353 349 349 348 345 348 348 345 344 343 343 342 341 341 341 342 342 342 341 341 342 343 343 341 336 331 331 332 334 337 338 338 337 338 338 337 335 333 332 331 332 333 333 333 333 335 335 335 336 337 338 337 338 338 337 336 335 337 337 336 334 333 331 331 333 333 334 334 334 333 334
311 314 317 321 320 318 322 322 321 319 318 317 316 320 319 318 317 314 316 312 323 347 353 351 348 353 353 349 353 349 344 346 346 345 343 342 343 341 340 339 340 343 343 343 342 343 343 343 343 342 337 331 331 332 334 336 338 338 338 338 340 339 337 336 335 334 334 333 332 331 330 331 332 332 333 334 335 336 336 336 336 334 335 336 336 334 333 333 331 330 331 332 332 332 332 331 331
311 313 314 319 320 318 321 320 316 316 318 318 316 320 320 319 317 315 317 315 329 352 354 350 349 355 354 350 353 348 343 345 345 345 342 343 342 341 340 339 340 343 344 343 343 344 344 343 343 343 339 333 330 331 333 336 339 339 338 338 340 340 339 338 337 336 334 330 327 326 326 326 326 327 328 329 331 333 334 335 334 334 333 335 335 334 334 334 332 330 330 331 331 331 331 330 328
313 313 314 319 319 317 318 317 318 318 318 319 316 316 318 315 315 314 315 316 335 357 354 349 350 353 352 351 352 347 344 344 343 343 342 342 341 340 340 339 340 342 344 344 344 343 343 343 341 343 342 337 331 331 333 335 338 338 337 338 338 338 338 339 338 336 330 325 324 324 324 324 324 324 325 325 326 330 333 334 333 333 333 334 334 334 335 334 330 329 329 329 330 330 329 329 327
317 314 315 320 320 316 315 316 321 323 317 316 316 317 317 313 314 311 314 325 344 356 353 351 353 350 350 351 350 346 343 342 342 342 341 341 340 340 340 340 340 342 344 344 343 342 342 342 341 342 343 341 334 330 332 334 336 337 336 336 336 337 337 338 337 332 326 324 324 325 326 326 326 325 325 324 325 328 332 333 333 334 334 334 334 334 333 331 328 328 329 327 327 327 326 327 327
317 315 320 323 321 318 317 318 320 325 322 317 318 320 314 311 312 310 323 345 352 352 350 353 353 349 352 352 349 345 342 342 342 341 341 341 340 340 341 341 341 343 344 342 339 338 338 339 337 339 341 341 336 331 331 332 335 336 336 335 336 336 337 338 336 330 325 325 326 328 328 328 328 328 327 326 325 326 329 331 332 332 332 332 331 331 328 325 325 327 327 326 326 326 326 326 326
321 319 322 319 319 320 316 316 317 324 327 319 317 315 312 312 312 315 333 349 350 348 343 348 350 349 352 351 348 346 343 343 341 341 340 340 341 341 340 341 342 341 341 337 333 333 335 334 332 333 333 336 336 334 332 332 334 335 335 335 335 336 336 338 335 329 325 327 329 329 329 328 329 328 328 328 327 326 326 327 328 329 328 328 327 325 323 323 325 326 326 326 326 326 327 326 325
321 320 322 316 315 318 315 315 315 318 322 319 316 312 313 313 311 320 343 352 349 346 343 345 347 350 353 349 350 348 344 343 341 341 340 341 342 341 340 341 340 337 335 333 331 331 330 329 329 328 329 333 334 335 335 332 332 334 335 336 335 335 336 338 335 328 327 329 330 330 329 329 329 329 328 328 328 327 326 325 326 326 326 326 326 325 323 323 325 326 326 325 325 325 326 326 325
315 320 327 319 314 315 313 314 315 315 317 318 315 312 314 316 317 330 348 354 351 344 345 345 342 346 351 350 351 347 343 342 341 340 341 341 342 341 340 338 337 334 332 331 331 330 329 330 333 334 336 337 335 337 337 333 333 334 335 336 335 335 335 337 333 328 328 330 330 330 331 331 330 329 329 329 328 327 327 326 327 327 328 328 328 326 324 323 323 325 326 326 326 325 325 326 325
314 321 322 317 315 313 312 313 313 315 318 318 314 312 313 314 325 344 344 344 350 343 343 347 344 344 346 349 349 344 343 342 340 340 341 341 340 339 337 335 335 333 331 332 332 333 335 338 338 337 339 339 338 339 338 335 335 335 335 336 335 336 336 336 331 327 330 331 331 332 332 332 332 331 330 330 329 328 327 327 328 329 330 330 329 328 326 324 324 324 325 326 326 325 325 325 325
313 320 320 316 316 313 315 315 314 315 317 318 314 312 313 311 323 343 343 341 348 344 342 345 344 344 345 347 345 343 343 341 340 340 339 339 338 338 337 336 336 335 335 334 334 336 337 339 337 334 337 337 339 340 338 337 337 337 337 336 336 336 337 334 329 328 331 331 332 333 333 334 333 332 332 331 330 329 328 327 328 329 329 330 330 330 328 326 325 325 325 325 325 324 325 326 325
313 321 319 316 316 316 319 319 316 314 315 316 314 311 313 312 314 333 345 342 343 345 344 344 344 343 344 344 343 343 342 341 340 339 339 338 337 338 338 337 337 337 338 337 337 337 336 336 335 335 338 338 339 339 338 338 338 338 337 336 337 336 337 335 329 329 331 331 333 333 334 335 334 334 333 331 330 330 329 328 329 328 328 328 329 329 329 328 326 326 326 326 325 325 325 326 326
317 320 316 317 318 317 319 318 316 314 314 314 314 312 311 314 309 322 349 347 346 352 347 345 346 345 345 342 343 343 341 341 340 339 338 337 336 337 337 337 337 337 338 338 338 337 334 332 335 337 339 338 338 339 338 339 339 338 337 337 338 336 336 333 330 331 332 332 333 334 335 335 334 335 334 332 330 330 331 330 329 328 328 327 326 327 328 329 328 327 327 327 326 326 325 326 325
316 316 315 320 318 316 317 316 316 313 312 313 314 313 311 315 309 320 348 347 350 355 348 348 348 347 346 344 343 342 341 341 340 338 337 336 336 335 336 336 337 337 338 337 335 334 332 332 335 336 336 336 337 338 338 340 339 338 337 338 337 336 335 332 330 332 333 333 334 334 334 335 336 336 335 334 332 331 331 331 330 329 328 327 325 325 325 327 329 328 327 327 327 325 324 324 324
312 313 316 318 313 313 316 315 317 312 311 313 313 313 313 313 311 331 351 346 347 349 345 348 349 347 346 344 343 342 341 341 340 339 337 336 335 335 335 335 336 337 337 336 334 333 333 333 333 331 332 335 337 338 339 339 339 338 338 338 337 335 334 332 331 332 334 334 334 334 334 334 336 336 336 335 333 331 331 331 329 329 328 326 325 323 322 323 325 327 328 327 327 325 324 323 323
311 313 315 316 311 312 314 314 315 312 312 312 312 312 312 311 312 330 340 331 333 343 342 343 344 344 344 344 343 342 342 342 341 339 338 336 335 334 334 334 335 335 337 337 336 335 334 332 329 330 333 337 338 338 339 339 339 338 338 337 335 333 333 333 332 333 333 333 333 333 333 334 336 336 335 335 335 332 332 331 329 328 326 325 324 323 322 322 324 325 327 327 327 326 324 323 324
313 315 314 315 311 311 312 313 313 313 312 311 313 311 311 314 311 324 337 334 334 338 341 340 341 342 342 342 342 342 343 342 341 339 339 337 336 335 334 334 334 335 336 335 336 336 335 332 331 333 335 338 339 338 338 338 338 337 336 335 333 332 332 333 333 332 333 333 332 332 332 334 335 335 333 333 335 334 332 331 329 328 326 325 324 323 323 324 326 327 326 327 327 326 325 325 327
312 314 314 314 312 311 312 312 311 312 311 311 312 310 313 312 308 332 352 346 340 341 341 340 341 341 341 342 342 342 343 342 341 340 339 338 337 335 334 334 334 334 334 334 336 336 336 336 335 334 336 339 339 336 336 337 336 336 334 332 332 331 332 334 333 332 333 332 331 331 331 332 332 333 332 332 335 335 333 331 330 329 328 326 326 326 325 325 328 330 329 329 328 326 326 327 329
311 312 313 313 311 312 312 311 310 311 311 309 310 309 313 313 317 344 355 342 341 343 340 340 340 341 341 342 342 342 342 341 340 340 339 338 337 336 335 334 334 334 334 333 334 336 337 336 335 335 335 336 335 332 334 334 333 333 333 330 330 330 331 333 333 332 332 332 332 331 331 331 330 331 332 332 333 334 333 332 331 330 330 329 327 327 328 328 328 330 330 331 330 328 327 328 329
312 312 312 311 311 312 311 310 312 311 310 309 310 310 316 326 336 351 348 339 342 340 339 341 340 342 342 341 341 341 342 341 340 339 338 337 337 336 335 334 334 334 334 334 334 336 336 335 336 335 333 333 331 329 331 331 330 331 330 329 329 330 331 332 333 333 332 333 332 331 331 331 330 331 333 333 333 333 333 333 332 332 331 331 330 329 330 330 330 330 331 331 330 329 328 329 330
312 311 311 311 311 311 310 311 312 309 310 310 311 312 314 323 337 352 347 339 340 339 341 340 340 344 341 341 341 340 341 340 339 338 337 337 336 336 335 335 335 334 334 334 334 336 336 334 335 335 333 331 330 329 329 329 329 329 329 329 329 330 331 332 332 333 334 334 332 333 333 332 331 332 332 334 334 334 334 334 333 332 332 332 332 332 331 331 331 331 331 331 331 329 329 330 330
312 311 312 314 312 311 310 312 312 308 311 310 311 312 309 316 332 354 349 339 339 340 341 340 341 342 339 341 340 339 340 338 338 337 336 336 335 335 334 334 334 334 335 334 334 335 335 335 336 336 334 332 330 330 329 329 329 329 329 329 329 330 331 332 332 334 335 334 334 335 335 333 333 333 333 334 335 334 334 334 334 332 332 332 332 332 332 331 331 331 331 331 331 330 330 330 330
312 311 312 316 314 314 313 312 311 309 311 311 311 309 311 315 323 343 345 338 340 340 340 341 341 340 339 339 338 338 338 337 336 336 336 335 335 335 333 334 334 334 334 334 334 334 335 337 338 338 336 334 332 331 330 330 331 330 331 331 331 332 332 332 333 336 335 333 334 335 335 334 334 335 334 333 333 333 334 334 334 333 332 332 332 332 332 332 331 331 331 331 331 330 330 330 330
312 310 312 315 316 317 313 310 310 310 311 311 310 310 317 316 316 336 345 339 341 340 341 341 340 341 339 338 338 338 336 335 336 335 336 335 334 334 333 334 334 334 335 334 335 334 335 338 339 340 339 337 334 334 334 334 335 335 335 334 334 334 334 334 335 337 336 335 336 335 335 335 335 335 334 333 332 332 333 332 332 332 332 332 332 332 332 332 331 331 331 331 331 330 330 330 330
312 309 314 315 312 318 318 312 312 311 312 312 310 311 316 319 326 341 344 338 342 341 341 341 340 340 338 338 338 336 336 334 335 334 335 334 334 334 334 334 334 335 335 335 337 336 336 338 339 340 340 339 338 337 337 337 339 339 338 337 337 337 336 337 336 337 335 335 336 334 334 334 334 334 334 334 332 331 332 331 330 331 332 332 333 333 332 332 332 331 331 331 330 330 330 330 330
317 310 319 320 312 318 322 314 313 312 311 311 309 312 316 323 336 346 343 340 342 340 341 341 340 340 339 339 337 337 335 333 334 334 334 334 334 334 334 335 335 335 336 337 338 337 338 339 340 341 340 340 341 340 340 340 340 340 340 339 339 339 339 339 337 336 335 335 335 333 334 334 334 334 333 332 331 330 330 330 330 331 331 332 333 333 332 332 331 331 331 330 330 330 329 329 329
327 315 319 320 314 318 319 314 314 313 310 310 309 317 326 331 339 345 343 341 341 340 342 341 340 340 339 339 337 337 336 334 334 333 333 333 332 334 335 335 336 337 337 337 338 339 339 340 341 341 342 342 342 342 341 341 340 339 339 339 339 338 338 338 337 336 335 335 334 333 334 334 333 333 332 332 330 329 329 329 330 330 331 332 332 333 332 332 331 331 330 330 330 328 328 328 329
327 323 322 320 316 316 317 317 316 310 311 312 310 319 328 331 340 347 345 342 341 342 342 340 340 340 339 339 337 336 336 335 335 332 333 333 332 333 335 336 337 337 337 336 338 340 339 340 341 342 342 342 342 341 341 340 339 339 338 338 337 337 337 337 337 336 335 334 334 333 333 333 333 333 332 331 330 330 329 329 330 330 331 331 332 333 332 332 332 332 330 330 329 328 328 328 329
321 321 321 320 318 316 317 320 317 312 312 312 309 314 316 324 340 348 345 343 343 343 342 341 340 339 339 338 337 337 336 335 334 332 333 332 332 332 334 337 337 336 335 335 337 338 340 341 341 341 342 341 341 341 340 339 338 337 336 336 337 336 335 335 335 334 333 333 332 332 332 332 333 332 332 331 330 330 329 329 330 330 331 332 332 332 332 332 332 332 331 330 329 328 328 329 329
319 317 317 318 319 318 318 318 316 313 312 312 311 313 312 324 343 350 346 345 345 343 343 342 341 340 340 338 337 336 336 336 333 332 333 333 332 332 333 336 336 335 333 334 336 337 339 340 340 341 341 341 341 340 338 338 337 335 335 335 335 334 333 332 332 331 331 331 331 332 331 331 332 331 331 331 330 329 330 330 330 331 331 332 332 331 331 331 331 332 331 329 329 329 330 329 329
315 316 318 318 318 318 318 317 317 314 311 312 313 316 316 328 344 349 346 347 346 345 344 343 342 340 339 338 337 336 337 334 331 331 333 333 332 331 333 334 334 333 331 333 335 336 337 338 339 340 340 340 339 338 337 335 334 333 334 334 333 331 331 330 330 329 330 330 331 331 331 331 331 330 330 330 330 330 330 330 331 331 331 331 331 331 331 332 332 332 331 329 330 330 330 329 329
314 316 318 318 318 320 318 316 317 315 312 312 314 319 322 329 343 349 346 346 346 346 344 343 342 340 339 338 337 337 336 332 331 331 330 331 332 331 332 332 332 332 331 331 332 333 334 336 338 339 339 339 338 336 334 332 331 332 332 331 330 329 329 329 328 329 329 329 330 330 331 331 330 330 330 329 329 330 330 330 330 330 331 330 330 330 332 332 331 331 330 329 329 329 329 329 329
319 319 318 318 318 318 318 319 321 319 315 313 315 320 322 324 335 342 344 345 343 342 341 341 341 341 340 338 338 337 335 334 333 332 329 330 331 331 331 331 332 332 331 330 330 330 331 333 336 337 338 338 337 335 331 330 331 331 330 328 328 328 328 328 327 328 328 328 328 328 329 329 329 329 329 329 329 328 329 329 329 329 329 329 329 330 331 331 330 329 329 329 329 328 327 328 328
323 320 318 318 317 315 317 323 325 322 320 318 318 321 320 322 328 331 333 337 340 340 338 339 338 340 339 337 337 336 335 335 333 332 330 329 329 330 330 330 331 331 330 330 329 329 330 332 334 336 337 337 335 332 329 330 330 330 329 327 327 327 327 327 327 327 326 325 324 324 324 325 326 327 326 327 328 328 328 327 328 328 329 329 329 330 330 330 330 329 329 329 328 328 327 327 327
324 323 320 319 319 315 315 321 327 329 323 321 325 325 320 323 331 332 328 330 339 341 338 338 336 336 336 335 336 336 335 334 331 332 331 329 328 329 330 330 330 330 329 329 329 329 329 330 333 336 336 335 333 330 328 330 329 329 328 327 327 326 327 326 325 324 324 323 323 322 321 321 322 324 324 325 327 327 325 324 326 327 328 329 329 330 329 329 329 328 329 329 328 327 327 326 326
323 325 323 322 323 319 319 323 330 332 322 317 322 321 319 326 331 330 325 327 335 338 337 338 336 334 334 334 335 334 334 333 332 331 331 328 327 328 330 330 330 330 330 329 329 329 329 330 334 335 334 333 330 329 329 328 328 327 327 326 326 326 325 324 323 323 322 322 322 321 319 318 320 322 323 324 325 325 322 322 326 326 327 328 328 329 329 329 329 328 328 328 327 327 326 326 325
320 323 323 323 324 321 322 324 323 324 319 317 320 319 320 328 327 323 321 324 334 337 337 338 336 335 334 334 334 334 334 333 332 331 331 329 326 327 330 330 330 330 330 330 330 330 330 331 333 333 332 331 329 329 328 327 326 326 326 326 326 325 324 323 322 322 322 322 321 320 319 319 320 322 322 323 323 322 321 323 326 326 326 326 326 327 327 329 329 328 328 328 327 327 327 326 325
321 322 320 322 322 319 326 329 323 323 321 320 326 327 321 322 322 322 322 325 333 337 337 336 335 335 335 334 333 334 334 333 332 332 333 331 326 327 330 330 330 330 330 330 330 330 330 330 330 331 330 329 328 328 327 326 326 326 326 326 325 323 322 322 322 322 322 321 320 320 320 320 321 321 321 322 322 322 321 323 326 326 325 324 324 325 326 326 327 328 328 328 328 327 327 326 326
324 322 319 321 321 324 334 333 328 328 320 318 331 328 319 326 331 326 325 329 336 339 339 336 334 335 334 334 334 333 332 332 331 331 332 330 326 327 330 331 330 330 330 330 330 329 328 327 328 328 329 328 327 327 326 326 325 325 325 325 323 322 322 321 321 321 320 320 320 320 319 320 320 320 321 322 322 322 321 322 325 325 324 324 324 324 324 324 325 326 326 326 327 327 326 327 327
320 319 317 319 322 328 337 333 329 330 322 321 330 323 315 328 338 327 318 323 334 340 337 332 332 333 333 333 334 333 332 331 331 331 330 327 326 328 330 331 331 330 330 329 329 328 327 327 327 327 328 327 326 325 324 324 324 324 324 324 324 322 321 320 320 320 319 319 319 319 319 319 319 319 320 321 322 322 321 322 324 325 324 323 323 323 323 323 323 324 325 325 326 326 326 326 326
314 320 320 318 324 331 336 336 330 324 324 326 328 325 317 321 332 330 319 318 326 331 329 327 329 331 332 332 333 333 332 331 331 332 329 324 326 328 330 331 331 330 330 330 329 327 327 327 326 326 326 325 324 323 323 323 323 323 323 324 324 322 320 319 319 319 319 320 319 319 318 318 318 318 318 320 321 321 321 321 323 324 323 322 322 322 322 322 322 322 323 324 324 324 324 324 325
316 326 323 317 324 328 329 332 328 321 327 329 327 325 319 318 326 325 322 321 320 320 319 320 324 328 331 331 331 332 331 330 331 333 331 327 327 327 329 331 330 331 331 330 330 328 327 327 326 326 325 324 324 322 322 323 322 323 323 323 323 321 319 317 317 319 319 319 319 318 318 318 318 318 319 320 321 321 320 320 322 322 321 321 321 319 319 319 321 322 321 320 319 320 321 323 324
319 322 324 320 322 323 322 326 325 325 327 324 324 323 318 324 327 318 319 321 318 317 316 314 316 322 329 330 331 332 330 330 331 332 331 331 329 326 327 330 329 330 331 330 330 328 327 327 326 326 324 323 322 322 323 323 323 323 323 323 321 319 318 316 318 320 320 319 319 318 318 317 317 317 318 319 318 318 317 316 317 319 319 319 317 316 316 318 320 321 319 318 317 317 317 319 320
316 317 323 323 322 320 320 321 321 323 325 321 320 321 320 325 324 317 320 322 321 322 321 319 320 324 330 330 330 331 330 330 330 329 329 330 328 324 325 329 329 329 331 331 331 329 328 327 326 324 323 322 323 323 323 324 323 323 323 322 320 319 316 316 317 316 317 319 318 317 318 316 315 315 316 315 314 314 313 311 310 312 313 312 312 312 315 318 319 319 318 317 316 315 315 315 315
313 316 318 320 326 325 321 322 324 322 323 322 317 316 323 326 318 316 321 323 325 327 325 325 325 327 329 328 328 329 329 330 331 330 330 326 323 324 326 328 328 329 330 331 331 331 329 326 324 323 322 321 322 322 322 323 322 322 323 321 320 319 315 313 313 310 312 317 319 317 317 315 314 314 314 314 314 314 312 310 307 307 307 306 306 308 311 316 318 318 318 316 314 313 313 313 313
311 312 314 316 323 327 322 318 324 326 323 322 318 317 325 326 317 317 323 326 327 327 326 326 327 326 326 327 326 327 326 328 328 329 332 328 320 321 325 325 326 328 329 331 331 331 330 324 321 321 321 321 321 322 323 324 323 322 322 320 320 318 314 312 312 309 310 316 318 318 317 314 312 313 314 314 314 314 312 310 308 307 305 304 304 304 305 310 313 314 314 312 311 311 311 311 310
313 310 314 316 315 325 327 315 317 324 323 321 318 319 326 325 319 320 326 329 328 327 328 327 326 326 327 327 326 326 325 325 324 325 330 331 323 321 324 324 325 327 328 330 331 331 329 322 320 320 320 321 321 321 324 325 324 322 321 320 319 316 312 312 311 310 314 317 318 319 317 313 310 311 313 313 314 313 312 311 310 308 307 305 304 303 303 304 305 306 306 306 307 309 310 310 307
316 313 314 314 311 319 328 324 322 321 321 323 318 317 326 330 327 323 324 328 328 328 329 327 326 327 326 325 324 326 327 326 328 326 325 326 323 322 324 324 325 326 327 329 330 330 327 321 320 320 321 323 323 321 322 322 323 322 320 320 320 315 313 313 311 312 317 317 317 319 317 313 311 310 311 312 313 313 312 313 312 311 310 308 306 304 303 303 303 303 303 303 305 307 308 308 306
314 314 312 313 316 319 319 322 324 319 319 322 318 316 322 329 333 326 320 326 329 327 328 328 327 326 325 324 323 324 326 327 329 326 325 326 322 321 324 325 324 324 325 327 328 327 325 321 320 320 322 324 323 322 322 321 322 322 320 320 320 316 315 315 313 315 318 315 311 314 316 314 312 310 309 309 311 312 312 313 312 312 312 312 310 306 303 303 303 303 303 304 307 308 307 308 307
309 313 313 316 324 323 318 319 323 322 322 321 319 319 323 329 333 325 319 327 330 328 329 329 326 325 325 325 324 323 323 325 325 322 324 326 320 319 323 324 324 324 323 325 325 325 325 322 320 321 323 324 322 321 322 321 322 321 319 320 319 316 316 316 315 317 318 313 308 308 311 313 312 311 309 307 309 310 311 311 312 312 312 312 313 311 307 305 305 305 304 304 306 308 307 308 309
313 318 318 317 317 315 316 316 316 322 327 325 322 322 325 330 327 322 320 325 327 328 329 327 325 324 323 323 324 322 322 325 326 324 325 323 318 319 323 322 323 324 323 324 324 325 325 323 321 322 324 325 323 322 321 321 321 320 319 320 318 316 317 317 317 319 318 314 310 309 310 312 314 313 310 308 308 309 310 309 309 310 311 312 312 313 312 308 307 307 306 305 305 305 306 306 308
318 320 316 316 317 316 317 315 313 320 325 324 324 325 327 324 318 319 322 322 323 325 327 325 325 325 323 321 323 322 321 323 324 325 326 321 317 319 322 323 323 324 324 324 324 324 324 324 323 323 324 326 324 322 322 321 321 320 319 318 317 316 317 317 318 319 318 315 313 312 312 314 316 316 314 311 309 309 309 309 309 308 309 310 312 313 312 311 309 308 308 308 308 307 307 306 306
Wind_Speed
3 4 3 2 2 4 2 2 2 2 2 0 3 1 4 4 2 2 4 5 4 2 1 3 3 2 3 7 10 8 6 2 4 5 2 3 12 17 20 25 30 30 28 26 26 26 25 25 24 23 22 21 22 23 23 23 23 24 25 24 24 24 25 26 25 26 26 25 25 24 23 22 21 20 19 19 18 18 17 17 17 17 17 17 17 16 15 14 14 13 14 14 13 14 14 14 15
3 3 2 3 3 4 2 2 3 2 3 2 4 3 4 3 1 2 4 6 3 0 3 5 6 6 7 9 9 6 7 4 3 3 2 11 16 16 22 27 29 29 27 26 26 26 27 26 25 25 23 22 22 23 23 23 23 23 23 23 23 23 23 24 24 24 24 23 23 22 22 21 20 19 19 19 18 17 17 17 18 17 17 17 17 15 15 14 14 14 14 14 13 14 14 14 15
3 3 2 5 3 2 1 3 2 1 3 2 5 4 3 1 2 4 3 6 5 3 2 2 5 5 4 6 5 4 3 3 6 4 4 14 14 14 24 26 27 28 27 26 25 25 27 28 27 26 24 23 22 22 23 22 22 21 22 22 22 23 22 23 23 23 23 22 21 21 21 20 19 18 18 18 17 17 17 17 17 17 16 16 16 15 15 14 15 15 14 14 14 14 14 14 15
3 4 4 5 2 3 3 3 2 4 3 3 4 5 4 2 3 4 4 7 4 4 1 3 4 4 3 6 4 4 4 4 6 4 5 10 12 17 23 24 25 26 26 25 24 24 25 26 26 26 25 25 23 23 22 21 21 21 21 21 21 21 21 21 21 21 21 21 20 20 20 19 18 17 17 18 18 17 17 17 17 16 15 15 15 15 14 13 15 16 14 13 14 14 14 14 15
4 5 4 3 2 1 3 2 2 4 4 4 2 5 4 5 3 3 6 7 6 5 2 4 2 3 4 5 1 2 4 4 5 4 5 8 16 22 22 23 25 24 25 24 23 23 23 24 24 25 25 25 24 23 22 20 20 20 20 19 19 19 19 19 19 19 19 20 19 19 19 18 17 17 17 17 17 17 18 18 17 16 14 14 15 15 14 13 13 15 14 13 13 14 14 14 14
5 6 3 2 2 1 3 2 2 3 5 4 2 7 5 5 5 4 5 7 5 3 3 4 3 2 3 3 2 3 2 2 4 4 5 11 20 23 22 23 24 23 23 22 22 22 22 22 23 23 24 24 24 23 22 20 19 19 19 18 18 18 18 18 18 17 18 18 18 18 17 17 16 16 16 16 16 16 17 17 16 15 13 13 14 15 15 14 12 12 12 12 12 13 14 13 13
6 4 2 3 1 1 4 3 4 4 4 4 3 6 8 6 5 2 2 4 3 3 4 4 6 6 3 1 1 4 5 1 3 6 9 16 22 23 23 23 22 21 20 21 21 21 21 21 21 21 22 23 22 23 23 22 19 18 18 17 17 17 18 17 16 16 16 16 16 16 15 16 15 15 15 14 14 14 15 16 15 13 12 13 13 13 13 14 12 11 11 12 11 12 12 12 12
5 3 1 4 1 2 4 2 4 3 4 4 5 6 10 9 6 4 1 0 3 1 4 6 6 6 2 1 1 3 6 5 9 12 16 20 21 22 24 24 23 20 19 20 22 21 20 20 20 19 20 21 21 21 22 22 20 18 17 16 16 16 16 16 16 16 15 15 15 15 14 15 14 14 14 13 13 13 14 14 14 12 12 12 12 11 11 11 10 10 11 12 12 12 11 10 10
2 1 1 3 2 1 2 2 3 3 4 5 4 7 10 9 5 4 2 3 3 2 3 5 5 6 3 2 3 2 6 12 16 18 21 22 21 22 23 24 23 20 19 21 22 22 21 21 20 18 18 19 20 20 20 21 20 18 17 15 15 14 14 14 15 15 15 15 15 14 14 14 14 13 13 13 12 12 13 13 12 11 11 10 10 9 9 9 7 9 10 11 12 11 10 10 9
2 2 2 1 3 1 2 3 3 3 5 5 5 9 10 8 4 5 4 5 5 4 2 4 7 7 7 4 3 2 6 17 23 22 22 22 22 23 23 23 22 21 22 22 23 22 21 22 22 20 18 17 20 20 20 20 19 18 16 15 14 13 13 13 13 13 14 15 15 15 14 14 13 13 12 12 12 12 12 12 11 10 9 8 8 8 7 6 6 9 11 11 11 10 10 9 8
2 2 3 3 3 3 4 3 3 4 5 4 6 9 8 6 4 4 4 4 3 7 5 5 8 8 8 4 2 5 12 20 25 23 21 22 23 23 23 22 21 22 24 25 24 22 20 20 20 20 17 15 17 20 20 19 18 18 17 15 13 12 12 13 13 13 13 14 14 14 14 13 13 13 12 12 12 12 12 11 10 9 8 7 7 6 5 4 6 10 11 10 10 10 9 8 7
2 2 4 4 3 4 4 2 3 5 6 4 5 7 5 4 3 2 3 6 5 8 4 2 7 6 6 3 2 7 13 17 22 23 23 23 23 23 23 23 23 24 25 26 25 24 21 19 20 20 18 15 16 18 19 19 19 18 17 15 13 12 11 12 12 12 13 13 13 13 13 13 12 12 12 12 12 12 12 11 10 9 8 7 6 5 4 5 8 11 11 10 10 9 9 9 8
3 2 4 3 3 3 3 2 3 4 5 3 3 7 6 5 4 1 5 8 6 6 1 3 9 5 4 3 3 8 10 15 21 23 23 23 22 23 24 24 24 24 25 25 25 25 24 23 22 21 20 18 17 18 19 20 20 19 17 15 13 12 11 12 12 12 12 13 13 13 12 12 11 11 11 11 11 10 10 10 10 10 9 8 7 6 6 7 9 11 10 10 10 10 9 9 9
3 3 4 3 1 3 3 1 1 1 3 5 3 7 7 5 3 2 7 9 4 2 1 3 7 5 4 4 3 6 10 17 23 23 24 23 22 24 24 24 24 24 24 24 25 26 26 24 23 23 24 23 22 21 20 21 20 19 17 16 14 13 12 12 12 12 12 13 13 13 12 12 11 11 10 10 10 9 9 9 10 10 10 9 8 6 7 8 9 10 10 9 9 10 10 9 9
3 2 4 3 0 1 2 2 2 3 3 5 2 6 5 5 4 4 6 6 3 2 2 5 3 2 5 7 5 6 14 22 23 24 24 23 24 25 25 25 24 24 24 24 25 26 25 24 23 23 24 24 24 23 22 22 21 20 18 17 15 14 14 13 13 13 13 13 13 13 12 11 11 10 10 10 10 9 9 9 9 10 10 9 8 7 7 7 9 9 9 7 7 8 9 10 10
2 3 5 1 1 1 2 2 2 2 4 5 3 5 6 6 6 5 3 2 4 4 3 2 4 1 5 7 7 13 20 24 24 25 25 23 23 24 24 23 22 23 23 24 24 23 22 22 22 20 20 20 20 22 21 21 20 19 19 17 16 15 14 14 14 14 13 12 12 12 11 11 11 10 10 9 9 9 9 9 9 9 9 9 8 7 7 7 8 8 8 6 5 6 8 8 9
2 4 4 0 3 3 3 3 4 2 5 5 4 6 6 6 5 3 4 8 7 5 5 3 4 1 3 5 16 24 25 26 26 26 24 22 21 20 21 20 20 20 21 22 22 21 21 20 20 19 18 18 19 19 20 20 19 18 18 17 15 15 14 14 14 14 13 12 11 11 11 11 10 10 9 9 9 9 8 9 9 8 8 8 7 7 7 6 7 7 7 6 5 6 7 7 7
2 3 2 2 3 3 5 6 5 3 3 5 5 4 4 4 2 3 5 9 6 8 7 5 6 6 8 14 25 27 26 29 28 25 22 19 18 18 18 19 19 19 19 20 20 21 21 20 19 19 19 19 19 19 20 21 19 19 18 16 16 15 14 13 13 13 12 11 11 10 10 10 10 9 9 8 8 8 8 8 8 8 7 7 6 6 6 6 6 6 6 6 5 5 6 6 6
2 3 2 4 5 4 5 5 5 3 2 6 7 3 3 4 2 3 3 2 2 7 5 6 9 10 13 16 22 25 27 28 25 23 21 18 18 18 17 18 19 19 19 20 21 21 21 21 20 20 20 20 20 19 20 20 19 19 18 17 16 16 14 13 14 13 12 11 11 9 9 8 8 8 8 7 7 8 7 7 7 6 6 6 5 4 4 5 5 6 6 5 5 5 4 5 6
2 3 2 5 5 4 4 5 6 4 1 6 8 4 6 5 3 2 5 4 1 4 4 7 9 11 13 12 17 23 26 25 23 21 19 18 19 19 20 20 20 21 22 21 22 22 21 22 20 20 20 20 20 19 19 19 19 19 18 18 17 16 15 14 14 12 11 10 9 8 7 7 7 7 7 7 6 7 7 6 5 5 5 5 4 3 3 3 5 6 5 5 4 4 4 4 5
1 3 4 5 4 2 6 7 8 5 1 3 5 6 8 6 1 3 8 7 1 5 7 8 12 14 14 12 15 20 21 19 19 19 18 18 18 20 21 20 20 22 23 22 22 22 21 20 20 20 20 20 19 18 19 19 19 18 18 17 16 16 15 14 14 12 11 10 8 8 7 7 8 7 6 6 6 5 6 5 4 4 4 3 2 2 2 2 3 5 5 4 3 3 3 3 5
1 3 5 5 5 2 7 7 6 4 1 2 3 4 6 3 4 3 7 5 4 6 8 10 15 17 16 14 14 16 17 16 17 17 17 18 18 19 19 18 18 21 22 22 22 22 21 20 20 20 18 18 19 19 19 19 18 19 18 17 17 16 15 14 14 12 11 10 9 8 7 8 8 8 6 6 6 5 5 5 4 3 3 2 1 1 1 1 1 2 3 2 1 2 4 4 5
2 4 3 4 4 3 5 3 4 3 0 4 3 3 3 3 4 1 2 2 6 5 5 10 15 17 15 14 14 15 16 17 17 18 19 19 19 19 19 18 19 20 20 20 21 22 21 21 20 18 17 18 19 19 20 19 18 19 19 18 17 16 15 15 14 13 11 10 9 8 8 8 8 8 7 5 5 4 4 4 3 2 2 1 1 1 1 2 2 2 2 2 1 1 4 4 5
3 3 4 4 4 5 6 3 2 3 5 7 2 4 6 4 3 1 2 2 5 2 6 11 14 16 15 13 14 15 15 16 17 19 21 21 20 19 17 17 18 19 18 17 18 18 18 18 18 17 17 19 19 19 19 19 18 19 18 18 18 17 16 15 13 12 10 10 9 9 9 8 8 7 7 5 4 3 3 3 3 3 2 2 2 2 2 2 3 3 4 3 2 1 2 3 4
3 4 4 3 2 6 7 5 6 5 7 5 2 6 8 6 3 3 2 1 2 4 9 12 14 14 12 12 14 14 13 14 15 17 18 17 17 16 15 16 17 17 15 14 14 13 14 15 15 15 17 19 19 18 19 19 19 19 19 19 18 17 16 14 13 12 11 10 9 9 9 9 8 7 7 5 4 3 3 4 3 3 2 3 3 3 3 2 3 4 5 4 3 1 1 1 2
5 6 4 3 4 6 5 5 7 5 5 3 4 8 8 3 4 2 1 4 4 7 11 13 15 12 10 11 13 13 13 13 13 14 14 13 14 16 17 18 17 16 14 13 13 13 14 14 14 15 17 18 19 19 19 19 18 19 19 18 17 16 15 14 13 12 11 10 10 10 10 9 9 9 7 6 4 4 4 4 4 3 3 3 4 3 3 2 3 4 4 5 4 1 1 1 1
5 5 4 6 6 6 2 5 6 2 4 6 8 8 5 2 2 1 3 8 9 9 12 13 12 10 9 9 10 10 10 12 12 12 12 12 15 18 19 19 17 17 15 14 13 14 16 15 15 16 18 19 19 19 19 18 17 18 18 16 16 15 14 14 13 12 11 11 11 12 11 10 10 10 8 6 5 4 5 5 5 4 4 4 4 3 3 3 3 3 4 4 4 2 1 1 2
4 4 3 6 5 6 3 5 6 2 3 8 10 5 1 2 1 4 6 10 10 11 12 13 11 8 8 7 7 7 7 10 12 12 11 13 15 17 16 15 15 15 15 16 14 15 17 16 16 18 19 20 20 19 18 18 17 17 17 16 15 14 13 13 13 13 12 12 12 12 11 10 10 10 9 7 5 5 5 6 6 5 5 5 5 5 4 4 3 3 3 4 4 2 2 2 2
1 3 2 7 7 6 5 4 5 4 3 7 9 2 2 1 5 5 8 11 10 10 12 13 10 7 8 7 6 5 5 8 11 11 12 14 13 13 13 12 14 14 13 15 15 16 18 16 16 18 20 20 19 18 18 17 16 16 16 15 14 14 13 12 13 13 12 11 12 12 10 10 11 10 9 9 9 8 6 6 7 6 6 7 7 6 5 5 4 3 3 3 3 2 2 2 2
1 2 1 4 7 6 6 1 2 4 3 6 8 2 5 6 8 5 11 14 12 11 11 12 9 6 7 7 5 5 5 6 8 9 11 12 10 11 12 11 14 15 13 15 16 16 19 17 15 17 19 19 18 17 17 16 15 15 15 14 14 13 13 13 12 11 11 11 12 12 11 11 12 11 10 11 12 11 8 5 6 6 7 7 6 6 5 5 5 4 3 3 2 1 3 3 3
1 1 1 2 1 4 7 2 4 4 3 5 6 4 6 7 7 7 13 13 14 12 12 12 10 8 7 6 7 6 4 4 6 9 10 10 10 12 12 13 15 16 14 15 15 16 19 18 17 18 18 17 16 17 17 16 15 14 14 13 13 11 12 12 11 10 10 9 10 10 9 9 10 10 10 10 10 10 8 5 7 7 7 7 6 5 5 5 5 5 5 4 2 2 3 5 4
2 0 2 3 1 4 9 4 6 5 2 3 5 3 5 7 6 10 13 12 12 11 12 13 11 9 8 6 6 5 3 4 6 9 11 10 11 13 14 15 15 15 15 14 14 17 19 19 17 17 18 17 16 16 16 15 14 13 12 11 10 9 10 11 9 8 8 7 7 7 7 7 7 7 9 9 9 8 7 6 8 7 7 6 5 5 5 6 6 6 6 5 4 3 4 6 6
4 2 2 2 1 2 6 3 5 6 0 1 5 3 3 5 6 11 12 12 11 9 11 12 11 10 8 5 4 5 4 3 5 9 12 13 13 14 15 15 15 17 17 16 17 19 20 20 17 17 18 17 16 17 16 14 12 10 10 9 8 8 8 9 8 7 6 6 6 5 5 5 5 5 7 8 8 8 8 8 9 8 7 6 5 5 5 7 7 7 7 5 5 5 5 7 8
4 2 0 2 2 1 3 5 4 1 2 3 3 4 5 6 5 11 12 12 10 8 10 12 12 10 6 5 4 5 5 4 5 9 13 14 14 15 16 16 18 19 19 20 21 22 23 22 20 18 18 16 16 16 15 12 10 9 8 8 8 7 8 8 8 7 6 6 6 5 4 5 5 5 5 7 8 8 8 9 9 8 7 6 5 5 5 7 7 7 7 5 5 5 6 9 11
2 1 1 2 3 2 3 4 4 3 1 4 3 4 8 5 5 11 10 11 10 8 9 9 10 9 6 6 6 5 5 6 6 9 13 14 15 16 17 19 20 21 20 20 21 22 22 21 19 18 17 16 15 15 14 12 10 9 8 8 8 8 7 6 6 5 4 4 5 5 5 4 5 5 4 5 6 7 8 9 9 8 7 7 6 6 6 7 7 7 6 4 5 6 7 10 13
6 4 3 3 3 4 5 6 5 1 1 5 5 5 6 3 8 12 10 10 10 9 7 5 7 8 6 6 6 6 6 6 6 10 14 15 14 15 17 20 21 20 17 17 18 19 19 19 18 18 17 16 16 16 14 12 10 9 9 9 8 8 6 4 3 2 1 1 2 3 3 3 4 4 3 3 4 5 6 8 9 9 8 7 7 7 7 7 7 7 7 5 6 8 9 12 14
5 3 2 3 3 4 6 6 6 2 5 4 5 7 6 6 10 11 9 8 8 9 9 7 8 8 7 7 8 7 6 4 6 10 14 15 13 13 15 18 19 17 15 16 18 19 19 19 19 18 18 17 18 17 14 12 11 10 9 9 9 7 5 4 4 4 4 4 2 1 0 1 1 2 2 2 3 4 5 6 7 8 8 8 7 7 6 7 7 7 8 7 9 10 11 12 14
3 2 1 3 3 5 7 5 6 1 3 2 2 7 5 4 7 8 9 8 9 11 11 9 9 10 8 9 10 8 5 4 6 8 11 14 14 13 14 16 17 18 17 16 18 19 19 20 19 19 19 19 18 17 15 12 11 11 10 9 9 7 7 7 7 8 8 7 6 4 3 2 2 2 2 3 3 4 4 5 7 8 8 8 7 7 7 7 7 8 9 10 11 12 10 10 13
3 2 2 2 3 4 6 5 4 3 1 1 2 5 1 3 3 5 6 7 6 7 7 5 6 9 9 10 9 6 5 5 5 6 9 14 15 15 16 17 18 19 18 17 18 19 20 20 20 20 20 19 18 16 14 12 11 11 9 9 9 9 9 9 9 10 10 10 9 8 6 5 4 4 4 5 5 5 4 4 5 5 6 6 6 7 8 8 8 9 11 11 12 11 8 8 9
3 3 3 3 3 0 3 5 4 5 2 3 5 5 3 4 1 2 2 2 1 2 4 2 3 7 7 7 6 6 7 6 5 6 7 11 14 15 16 18 19 18 17 18 19 20 20 21 21 21 21 20 18 16 14 13 13 12 10 10 10 9 10 9 9 10 9 9 9 8 7 6 5 4 3 4 5 5 5 4 3 3 4 5 5 6 8 9 10 11 11 11 10 9 8 6 5
3 4 5 3 4 4 4 4 5 5 4 4 7 5 4 3 1 3 2 1 2 3 5 4 4 5 4 5 5 6 6 6 6 6 6 8 11 13 14 16 17 17 18 19 21 21 22 22 22 22 22 20 18 16 15 15 14 13 12 11 10 9 9 9 9 9 8 7 7 5 4 3 4 4 2 3 5 5 4 3 1 2 3 4 5 5 6 8 10 11 12 11 9 9 9 7 5
3 4 8 8 5 5 4 2 5 4 4 3 4 4 3 5 2 5 3 1 0 1 5 6 6 6 6 6 5 5 5 5 6 6 6 7 9 12 13 15 17 18 19 20 21 22 23 24 24 23 22 21 19 17 16 16 15 14 12 12 11 10 10 8 8 8 7 5 4 3 2 2 3 4 3 3 4 4 2 1 1 2 3 4 5 5 5 7 8 8 9 9 8 9 10 9 6
2 5 7 7 6 3 1 3 4 2 0 1 3 4 1 5 4 3 2 3 3 2 5 7 7 7 8 7 5 5 5 5 5 6 7 7 9 12 13 16 17 18 19 19 20 22 23 24 24 23 22 21 19 18 18 17 16 14 12 11 10 10 10 9 8 7 6 5 4 3 2 3 3 4 3 3 3 2 1 2 2 3 3 3 3 3 3 4 5 6 7 7 7 7 8 7 6
2 5 6 8 6 4 3 5 4 2 2 2 4 4 4 1 4 3 2 3 3 4 6 7 6 8 8 7 6 6 6 6 6 7 7 8 10 12 14 16 17 17 19 20 21 22 23 23 23 23 22 21 21 20 19 17 16 14 12 11 10 9 9 9 9 8 7 6 5 5 4 4 4 3 3 3 3 2 1 2 3 3 3 4 4 4 4 3 3 4 5 6 5 4 4 4 5
5 5 7 6 5 5 4 6 4 1 1 2 6 4 4 2 5 4 4 4 4 7 8 8 8 9 9 8 7 7 7 6 6 7 7 8 11 13 15 17 17 18 19 20 22 21 20 21 22 23 24 24 23 21 20 17 15 13 13 12 11 10 7 7 8 7 7 7 7 7 6 5 4 2 2 2 3 3 1 1 4 5 4 5 5 7 7 6 5 4 4 4 4 4 3 3 3
4 6 6 5 6 5 4 5 3 3 3 3 6 4 3 3 5 3 3 1 5 7 7 8 9 8 8 8 8 7 6 6 6 6 6 9 12 14 14 17 18 18 17 18 19 19 19 22 24 26 26 25 23 21 20 18 16 14 13 13 12 11 9 8 8 7 8 8 7 8 7 6 5 3 2 2 3 3 1 1 4 6 6 6 7 7 7 7 6 6 5 5 5 5 6 6 6
4 6 6 6 6 5 3 3 4 4 2 5 6 2 3 1 5 3 0 2 4 5 6 5 7 8 8 8 8 8 7 6 6 5 5 8 11 13 14 16 17 16 15 16 18 19 21 24 25 26 25 23 22 21 20 19 17 15 13 13 13 12 11 10 10 9 9 8 8 7 7 6 5 4 3 4 4 4 3 3 4 5 5 6 6 6 7 7 7 7 7 8 8 8 9 10 10
5 5 5 4 4 5 4 4 4 4 2 6 5 2 3 2 3 3 4 7 6 5 7 6 5 9 10 8 7 7 6 6 6 5 5 7 9 11 12 14 15 15 15 17 18 20 22 23 25 24 21 19 19 19 19 17 16 14 13 13 13 12 12 12 12 11 10 9 8 8 7 6 5 5 5 6 6 5 5 4 4 5 5 5 4 5 6 6 7 7 8 10 11 11 11 11 12
5 5 5 4 2 3 2 3 1 2 4 3 3 2 2 3 4 4 5 8 7 6 7 6 6 9 8 6 6 5 5 6 6 5 5 6 7 9 12 14 15 15 17 18 19 20 22 24 24 21 16 15 16 17 17 16 15 14 13 12 12 11 10 9 9 9 9 9 9 8 7 6 6 7 7 7 7 6 5 4 4 5 5 5 4 5 7 8 7 8 9 11 11 12 11 11 13
4 5 4 4 3 2 1 2 1 1 4 2 4 3 1 3 3 2 5 7 7 6 5 5 7 7 5 6 6 6 6 5 5 4 4 4 5 9 12 14 14 15 17 18 19 21 24 24 20 16 14 15 18 19 19 18 16 15 13 12 11 8 6 5 4 2 5 8 8 8 7 6 6 7 8 8 7 6 3 2 3 5 5 5 5 7 9 10 9 9 9 10 10 10 10 10 11
3 4 5 5 4 4 3 3 2 2 2 2 4 2 2 2 2 5 5 5 5 4 3 1 2 3 5 7 7 7 6 5 5 5 4 3 3 7 11 11 12 14 17 19 20 22 25 20 13 13 15 16 17 18 16 13 12 14 15 14 11 8 5 5 5 3 7 10 9 8 6 5 5 7 7 7 5 4 2 1 3 5 6 6 7 8 9 10 9 9 8 8 9 9 9 9 9
1 2 5 3 5 5 3 2 4 4 2 0 2 2 2 3 3 6 4 5 6 5 5 6 6 6 7 7 6 7 6 5 4 5 6 6 6 4 6 8 11 13 16 19 21 24 24 15 12 14 15 15 14 13 11 10 12 15 17 17 15 12 9 8 9 9 10 12 10 8 5 3 5 6 7 6 5 3 2 2 3 4 5 6 7 7 8 8 7 7 7 8 9 9 8 9 9
1 2 3 4 4 7 6 2 1 3 4 1 1 2 4 2 1 4 5 6 7 6 6 6 6 6 8 7 6 6 6 6 6 5 2 5 8 5 4 6 10 13 16 18 20 24 21 13 16 19 18 16 16 16 17 20 22 21 19 19 18 15 13 14 14 13 13 14 11 8 5 3 3 5 6 6 5 4 3 2 2 2 3 4 5 5 6 6 6 5 6 7 9 9 8 9 9
5 3 5 3 3 5 5 3 3 4 3 3 2 1 4 1 1 4 5 5 5 6 5 5 5 6 8 6 4 6 7 7 7 3 5 1 7 4 3 7 11 14 17 19 20 20 15 14 23 25 19 20 24 24 25 27 27 25 22 22 19 16 18 19 16 15 15 13 10 8 6 4 4 4 6 7 7 5 4 3 2 1 2 3 3 3 4 5 5 5 6 7 8 8 8 10 9
4 4 3 3 3 2 2 3 2 2 2 2 3 1 2 2 3 3 1 1 2 4 4 4 5 5 7 5 3 5 6 7 7 1 6 1 6 4 2 5 8 11 15 17 17 15 12 18 26 25 20 24 25 26 27 27 28 27 25 24 21 18 20 20 16 16 16 13 9 8 7 6 5 5 6 7 8 7 6 5 4 3 1 1 1 2 3 3 4 4 5 6 7 6 7 9 9
4 3 3 2 3 4 2 3 3 4 4 2 1 2 2 4 4 3 4 6 4 1 1 3 4 4 5 6 5 4 5 6 5 3 2 3 6 4 2 2 1 5 10 12 12 12 15 21 25 23 19 20 22 25 28 28 27 26 26 26 22 20 22 20 18 19 17 14 11 9 7 7 6 6 6 7 8 9 8 7 6 6 4 3 2 2 2 2 3 3 4 5 5 5 5 7 8
3 3 2 2 2 3 2 2 2 4 4 3 2 1 4 5 3 3 5 6 5 4 3 2 2 2 1 2 5 5 4 6 5 3 2 4 5 5 4 4 5 3 4 6 9 13 17 21 23 22 18 18 21 25 28 29 27 25 26 26 24 22 22 20 21 21 18 15 14 12 10 8 7 7 7 7 8 9 9 8 8 8 7 6 5 4 3 3 3 3 3 4 5 5 4 5 6
5 3 2 3 3 4 4 2 0 2 4 4 4 2 5 4 2 4 6 5 4 3 4 2 2 4 3 3 4 5 2 4 5 4 4 4 5 6 6 6 7 6 4 5 8 12 16 20 22 21 18 17 20 25 28 28 28 26 26 26 24 21 19 20 23 24 20 18 18 15 12 11 9 8 8 8 9 9 9 9 8 9 9 9 8 7 6 5 5 5 4 4 5 5 5 5 5
Wind_Direction
112 117 93 124 164 146 151 92 96 316 91 272 273 234 258 235 248 306 314 309 310 306 12 33 39 8 101 121 129 113 68 123 168 154 205 173 149 157 166 164 159 158 156 155 154 157 161 161 159 153 152 146 141 142 141 141 140 139 137 135 132 131 130 129 128 127 127 125 124 124 125 125 124 123 122 122 122 121 120 117 113 110 110 112 113 113 111 110 112 114 117 117 119 122 123 123 124
128 126 91 141 138 143 191 75 103 315 65 320 271 183 253 291 289 237 320 317 266 297 58 66 67 54 72 104 118 97 51 48 130 131 104 134 140 150 158 159 157 157 153 153 154 158 162 161 160 156 154 149 144 143 142 143 142 140 138 135 134 132 131 130 128 128 128 126 125 125 127 126 125 124 124 125 125 124 123 119 116 112 109 113 115 114 114 110 111 117 120 120 120 123 125 125 129
139 148 150 151 112 79 104 47 100 105 102 232 268 230 246 295 209 186 322 308 238 170 93 75 77 46 56 77 53 57 81 94 109 98 118 140 140 146 155 155 153 154 152 153 154 159 163 162 163 160 156 153 148 145 143 142 143 141 139 135 135 134 133 133 131 132 132 131 130 129 129 126 125 125 126 126 125 125 123 120 116 112 109 116 121 121 120 113 111 119 122 122 123 125 125 126 130
146 149 170 160 91 29 74 48 132 122 150 216 267 263 231 211 191 182 300 308 250 182 79 37 58 351 47 80 38 65 109 125 106 104 136 148 151 148 151 150 151 152 151 153 154 158 162 163 163 160 158 155 150 146 144 142 142 141 140 138 136 137 137 137 136 137 136 136 134 132 130 127 126 125 127 126 125 124 120 118 116 116 118 123 123 120 117 111 109 114 119 123 126 127 128 130 133
147 151 171 154 99 80 104 86 118 126 200 190 229 266 232 214 203 211 280 295 261 202 118 70 59 334 49 70 356 70 98 113 85 94 119 135 149 148 146 147 147 147 149 152 153 155 159 162 161 160 159 156 152 149 145 141 142 141 141 140 138 139 140 140 140 140 139 138 136 134 133 131 130 128 128 127 127 125 121 120 123 127 132 129 121 119 114 108 106 107 111 123 129 130 134 134 134
140 138 124 90 95 154 118 121 161 203 223 165 203 271 256 223 209 210 265 290 281 177 118 94 108 83 65 27 23 40 21 134 83 97 120 133 148 148 145 143 142 142 145 150 154 154 155 160 160 161 161 158 156 151 146 143 142 142 142 141 140 141 141 141 140 140 138 137 136 136 135 135 134 132 131 131 131 130 129 131 135 138 137 131 122 121 120 114 110 108 112 125 132 130 135 135 135
152 143 54 77 47 29 113 170 199 222 243 179 199 271 283 270 241 243 322 314 334 83 83 91 115 102 78 304 76 16 345 295 115 124 134 139 147 149 148 143 139 138 143 150 153 152 152 156 157 160 162 160 157 153 148 144 143 144 144 142 141 142 142 142 141 142 140 138 137 137 137 137 136 136 135 135 136 136 138 141 144 144 139 132 125 124 123 119 114 114 120 129 133 127 130 134 139
156 161 21 100 70 21 107 208 228 211 248 230 215 250 276 281 288 312 60 249 303 100 107 113 112 96 76 297 92 13 27 98 132 136 138 139 146 150 152 148 140 136 142 148 149 149 150 151 152 157 161 161 158 154 150 145 145 146 145 141 139 141 142 143 144 146 145 143 141 140 140 139 139 140 140 140 141 142 143 146 147 147 143 136 130 128 125 122 113 115 122 126 133 132 133 139 146
106 76 131 102 117 57 55 261 254 233 253 260 252 255 272 279 282 275 196 196 224 135 120 144 122 106 122 72 79 17 60 111 131 136 140 142 147 150 150 148 140 137 141 145 146 147 148 148 150 153 158 162 163 158 152 147 146 147 147 143 142 143 144 146 147 148 147 146 143 142 142 140 141 141 143 143 144 147 147 149 148 147 145 139 133 129 129 128 117 120 126 124 130 137 140 143 150
58 32 147 92 115 130 316 270 252 252 251 252 264 266 272 278 265 235 194 194 189 116 97 124 106 117 126 98 73 54 106 126 130 131 141 146 149 149 147 146 143 140 143 146 147 147 147 149 149 151 155 161 166 163 155 151 150 150 152 149 149 149 149 152 150 151 149 146 144 141 141 140 140 140 140 140 143 148 149 151 148 146 143 139 137 135 136 133 123 127 134 132 129 139 150 152 154
53 339 107 80 98 160 230 244 263 263 268 283 280 266 259 268 275 250 174 160 160 118 138 106 98 123 114 99 66 102 127 132 131 134 145 148 150 149 145 144 145 145 147 147 145 142 143 146 145 147 152 156 165 166 159 157 156 156 158 156 155 154 155 157 154 154 151 146 143 140 139 139 138 139 138 137 138 143 150 152 149 146 146 146 145 143 140 130 128 131 136 136 131 137 150 157 158
102 310 69 99 160 184 206 212 273 281 297 315 291 281 278 281 310 280 131 123 128 119 150 152 134 138 105 101 101 125 131 132 135 139 146 148 149 147 145 146 148 149 148 146 143 142 145 149 147 146 151 157 166 169 166 164 164 163 161 159 159 161 159 159 159 157 152 147 144 139 138 138 138 138 136 134 135 140 148 151 149 147 147 150 146 137 126 123 126 131 133 128 123 129 139 149 155
129 156 95 143 194 170 171 160 273 312 321 292 257 292 321 346 8 17 121 114 120 119 179 193 148 125 94 111 109 135 136 137 140 143 147 146 146 146 148 149 149 150 147 149 150 151 153 155 153 150 154 162 171 175 173 172 171 168 166 164 166 169 163 161 163 160 155 149 144 141 140 139 139 138 136 134 136 140 142 143 144 144 145 143 136 122 114 117 122 128 128 119 112 115 126 140 146
146 149 124 170 188 128 155 157 255 43 290 263 258 307 337 5 358 103 105 91 64 98 152 121 128 100 95 128 129 150 145 146 146 145 146 142 143 145 148 150 151 153 154 158 160 158 156 157 158 158 162 168 174 178 178 178 175 172 169 169 171 172 168 166 166 164 158 152 147 144 143 142 139 137 136 138 141 141 137 133 133 136 139 138 133 122 112 114 121 129 128 118 107 105 113 128 138
162 129 97 134 68 85 188 195 165 137 244 256 272 325 3 2 360 69 79 94 68 1 75 77 78 89 156 168 172 169 152 150 148 145 143 139 142 145 148 153 156 159 162 164 162 160 158 159 162 163 166 168 172 176 177 178 174 173 171 171 174 174 171 170 170 168 162 156 151 148 146 144 139 136 137 142 145 142 136 130 127 130 136 139 137 128 119 117 121 132 137 128 111 104 109 118 130
135 106 74 112 214 188 202 197 149 141 250 243 270 356 28 350 14 54 2 107 114 19 28 51 332 305 179 185 147 143 148 148 146 144 142 139 143 146 151 157 160 163 165 165 162 163 161 159 162 163 164 166 171 174 174 173 171 172 173 173 176 175 173 173 173 170 165 161 156 152 150 145 139 136 137 143 145 143 138 133 131 134 140 142 141 137 131 125 122 131 140 139 124 112 110 114 125
78 84 77 172 204 184 192 192 164 169 262 269 325 21 35 340 16 77 28 54 90 61 39 36 336 341 151 140 129 137 145 146 146 144 142 142 145 147 154 159 162 163 166 168 166 165 163 159 162 163 165 169 173 174 172 170 169 173 174 174 176 175 174 175 174 172 170 165 161 158 155 150 144 139 137 142 145 144 140 137 137 139 143 145 146 148 147 141 130 129 132 134 133 123 115 111 119
63 92 123 209 187 183 183 189 186 172 264 285 327 18 33 335 15 139 66 42 62 72 52 65 57 65 96 114 129 139 145 145 149 148 147 148 151 153 159 163 164 164 166 169 168 167 166 164 165 166 170 174 175 174 173 170 170 174 175 175 175 175 175 176 176 174 174 169 168 166 160 155 147 142 141 143 145 144 141 139 141 144 146 148 153 156 156 153 144 136 133 131 130 126 121 115 117
109 116 156 218 193 208 199 198 210 184 260 298 312 352 14 303 210 139 104 28 48 78 61 88 90 97 110 120 131 141 146 147 153 153 155 159 162 163 164 168 167 165 166 169 171 171 170 170 169 170 173 176 176 173 172 172 172 174 175 175 175 173 175 179 178 177 179 175 173 172 165 160 150 147 148 143 142 140 139 140 143 149 150 151 155 160 158 158 161 155 150 145 137 129 125 120 120
162 135 195 241 204 226 247 236 241 226 304 313 303 325 341 290 207 123 127 130 108 127 139 126 129 136 131 133 136 143 148 150 157 159 164 168 171 172 171 174 172 169 169 170 174 175 174 173 172 173 176 177 177 173 171 174 175 177 177 176 175 175 178 182 182 182 185 183 179 176 171 167 157 155 153 145 144 141 139 143 147 157 158 158 159 167 170 169 177 178 178 171 153 136 129 127 128
170 151 195 233 172 208 254 228 248 267 219 268 293 332 323 297 85 106 130 123 233 212 202 173 159 153 144 145 145 146 151 154 159 166 172 175 178 180 179 177 174 174 171 170 174 177 177 176 176 178 178 178 177 172 173 177 177 179 179 177 178 179 183 186 187 188 190 190 184 179 176 171 165 166 163 149 149 150 150 153 158 172 169 168 175 179 188 201 198 197 200 193 174 144 131 134 133
158 231 204 204 152 211 256 212 233 256 153 267 300 325 297 314 37 117 142 148 231 224 214 189 163 157 153 149 149 150 154 161 164 172 179 181 183 184 182 177 175 177 174 172 174 176 177 178 182 183 179 178 176 173 175 180 180 181 181 179 182 185 189 190 191 193 195 193 187 187 183 176 172 174 172 157 159 165 167 167 172 183 181 183 205 215 224 279 253 225 226 222 208 153 130 132 130
199 271 260 232 182 216 263 203 201 197 197 273 253 295 296 9 15 192 149 213 262 261 196 172 161 157 151 145 152 157 161 168 170 177 183 184 187 186 182 178 177 179 178 178 176 176 178 181 186 183 179 179 178 177 178 180 183 185 184 183 187 190 194 195 194 195 197 193 189 192 188 181 179 178 179 173 173 181 186 185 190 196 193 212 271 298 307 336 335 316 297 297 279 170 130 124 117
188 261 300 270 188 208 254 255 230 194 232 255 266 332 298 285 285 94 53 310 297 314 137 150 156 153 147 148 157 163 168 172 174 179 184 187 188 186 184 181 179 180 181 181 180 182 181 183 186 181 179 182 182 182 181 184 188 189 188 189 193 195 198 199 197 196 199 196 192 191 188 184 183 185 186 184 185 197 212 206 210 216 210 232 265 296 317 338 346 352 343 335 320 255 135 120 105
203 225 271 280 206 231 258 274 271 245 238 249 289 287 268 245 188 106 52 355 12 100 127 145 151 150 152 157 161 166 172 175 177 179 184 189 186 185 188 185 180 178 178 180 185 189 186 187 189 186 185 187 188 187 187 190 191 191 194 196 197 199 203 205 202 199 201 199 196 195 192 188 190 199 196 191 200 222 239 229 231 238 235 243 254 281 305 323 339 349 352 353 347 326 126 112 91
220 209 243 274 279 271 275 279 267 246 239 184 179 255 259 204 126 87 198 136 130 128 136 149 150 153 159 163 168 169 174 176 178 178 181 183 181 188 192 188 182 177 174 176 184 187 186 192 195 195 194 192 192 192 194 196 194 195 200 203 203 205 207 209 208 205 205 204 206 204 197 197 205 210 202 200 213 234 254 251 252 251 245 247 258 276 290 310 330 338 347 359 3 344 327 9 28
198 189 237 245 270 290 264 262 263 226 235 183 182 239 253 200 117 251 205 145 146 141 144 157 155 157 159 165 174 172 176 176 173 172 173 178 184 192 193 188 182 175 172 172 182 185 184 194 204 204 201 198 196 197 200 200 201 203 207 210 211 213 214 212 213 211 207 212 217 208 198 206 219 217 207 209 221 239 259 266 264 255 249 254 272 285 281 286 305 326 341 356 2 344 299 316 342
175 169 268 272 300 305 234 241 261 201 229 198 182 217 73 91 210 216 178 147 156 151 150 164 161 157 158 165 176 178 182 173 169 171 176 184 189 193 192 189 178 168 170 173 181 186 185 195 207 209 205 203 201 202 204 206 209 212 215 217 217 221 220 217 218 214 212 221 225 212 204 217 227 221 211 211 223 236 256 267 264 261 263 267 280 287 275 269 274 301 325 343 351 327 275 288 314
179 135 277 296 356 333 254 241 238 175 209 189 161 213 344 173 241 220 154 148 161 154 157 168 162 154 162 174 183 185 183 169 172 180 188 190 190 189 188 189 177 163 167 176 183 187 188 197 208 209 207 206 206 208 211 212 214 217 221 222 222 226 227 228 227 220 223 232 231 224 221 226 229 227 218 214 218 219 228 255 263 270 275 274 281 282 272 265 260 273 292 319 338 302 246 246 268
297 91 127 305 6 334 272 262 153 160 191 165 143 243 268 253 260 210 153 155 161 160 169 171 162 158 167 181 187 186 180 173 181 185 192 190 185 184 178 178 176 169 172 181 185 188 189 199 211 210 208 211 211 214 217 216 217 219 222 223 224 230 233 235 231 228 235 241 240 238 235 234 235 232 224 219 217 208 199 221 244 259 271 272 278 276 266 261 257 258 259 274 312 274 221 215 230
337 4 47 354 21 285 287 313 129 163 212 151 145 238 252 267 268 185 162 164 164 165 173 172 171 174 176 183 185 189 181 176 189 188 189 186 180 179 172 175 178 176 180 183 186 187 190 202 213 211 210 215 216 218 220 219 220 220 221 221 224 231 239 241 241 240 240 244 248 246 251 256 245 230 221 215 214 206 192 205 222 229 249 261 274 272 258 259 258 251 245 248 274 259 216 213 227
35 96 315 348 145 268 301 295 165 189 279 108 146 231 260 268 243 181 168 171 172 168 171 175 178 182 183 184 179 182 171 165 191 199 195 185 180 177 174 176 177 179 185 187 188 188 193 206 213 213 214 215 217 219 219 221 221 220 220 222 226 235 247 257 261 252 242 251 259 253 269 278 257 234 217 204 200 199 191 209 223 221 229 241 260 261 251 260 260 248 243 247 265 266 236 217 213
1 98 223 288 157 281 316 305 210 198 163 119 167 176 250 267 221 181 172 176 178 169 173 180 185 192 189 175 166 176 176 169 198 211 201 189 185 181 178 178 180 188 188 187 193 193 199 208 212 216 216 212 213 216 217 218 216 218 222 225 235 244 255 266 270 268 269 283 281 269 274 275 265 247 219 198 190 192 195 213 224 223 226 226 232 240 245 258 259 245 240 242 256 258 235 203 186
321 30 105 246 212 258 310 310 285 135 105 225 179 148 225 266 195 176 176 179 181 175 181 188 192 196 181 161 177 184 186 192 203 216 207 194 187 183 182 182 187 193 187 185 193 195 198 203 207 214 215 211 211 213 213 211 210 214 221 227 236 244 252 260 267 279 293 301 295 284 276 269 264 252 225 204 195 195 204 217 223 224 234 232 223 227 239 256 260 242 235 247 252 240 218 193 178
199 189 53 294 291 275 258 280 292 40 44 230 168 169 241 274 175 179 180 176 183 187 187 194 198 191 173 175 194 188 193 207 206 214 214 203 190 183 183 185 189 193 190 187 189 192 195 198 203 209 212 211 210 211 210 206 205 207 212 219 226 238 250 256 268 285 297 301 295 285 283 279 264 253 235 215 203 200 208 219 225 228 239 244 237 239 244 257 261 237 226 242 239 221 202 186 175
156 173 155 199 264 277 251 254 260 107 105 223 193 192 226 212 175 185 182 175 184 190 187 190 192 187 179 187 198 194 199 209 196 203 214 212 198 187 187 190 193 196 196 190 188 193 197 197 202 207 210 211 207 206 204 198 194 195 204 211 218 229 236 239 249 267 262 263 271 276 292 296 278 262 242 229 220 210 209 219 228 231 239 245 242 244 249 253 251 229 217 222 221 205 184 176 172
129 134 155 203 223 270 265 264 276 155 142 231 207 185 204 192 184 183 170 165 176 184 190 190 183 185 191 196 201 201 201 192 168 185 205 212 204 192 194 198 195 196 198 194 191 195 200 201 204 206 208 208 205 204 200 196 191 189 194 202 209 209 192 167 146 134 131 139 152 178 293 318 271 242 230 237 230 205 193 210 229 236 238 243 242 239 241 240 233 221 210 205 205 192 172 167 169
102 138 219 268 226 245 260 259 296 288 161 272 179 167 209 212 191 180 158 163 182 186 191 191 183 184 194 204 206 199 183 145 144 166 185 196 198 190 195 203 200 196 196 196 197 199 200 204 208 210 209 205 204 205 205 201 195 190 187 188 186 168 142 131 123 116 115 121 123 122 122 129 147 158 173 192 188 163 163 199 225 236 238 241 240 232 229 226 219 212 206 202 202 195 181 177 173
90 116 167 255 242 270 289 275 314 339 143 332 109 134 284 298 222 196 170 178 193 188 190 190 180 185 197 207 209 196 175 154 152 161 173 184 189 187 188 199 205 204 200 199 202 201 199 203 209 211 208 202 199 204 208 199 188 185 179 169 161 145 132 126 119 113 110 112 112 114 118 125 142 154 156 154 140 130 144 182 205 223 232 233 233 228 224 218 209 206 207 209 209 204 198 197 191
122 137 143 242 262 320 297 287 329 354 48 111 112 96 9 346 338 269 236 184 123 122 155 159 188 199 212 220 218 204 189 175 165 169 176 181 185 187 188 192 201 206 204 201 203 203 202 204 208 209 205 200 196 198 199 188 179 175 166 157 153 144 135 130 124 119 116 116 113 114 115 118 131 146 158 158 142 135 145 157 175 205 217 219 223 224 218 208 202 201 204 210 213 210 201 201 214
237 187 165 216 254 204 215 292 340 353 15 72 89 58 353 359 155 243 270 61 66 103 146 162 205 211 235 247 231 212 196 180 175 180 184 181 182 188 191 191 196 202 204 205 206 207 207 207 208 208 204 197 193 193 189 183 178 170 160 153 148 141 135 134 132 127 126 127 122 118 115 115 127 131 141 164 155 143 132 128 157 193 195 201 204 207 208 205 202 198 201 209 212 219 219 207 197
297 235 198 196 201 203 217 345 20 34 12 7 69 66 322 320 272 222 238 224 191 158 175 184 197 204 224 235 222 205 192 178 175 177 183 185 181 183 190 194 195 199 204 206 208 208 209 208 206 204 199 193 191 191 186 185 185 180 173 165 158 149 140 141 142 138 140 142 133 124 94 98 138 143 137 137 147 140 124 150 163 169 185 190 189 188 194 199 202 201 205 213 216 227 233 223 198
328 247 200 174 157 158 136 66 63 86 207 311 65 114 207 316 299 241 261 226 220 239 210 201 194 199 215 223 210 197 193 182 170 169 179 185 180 180 189 194 195 198 201 203 203 203 204 204 201 197 194 190 190 189 187 189 190 187 186 182 175 166 155 154 156 152 153 153 141 128 91 93 128 151 143 136 148 145 243 242 158 148 167 161 164 174 179 190 197 200 200 205 214 221 220 217 207
236 232 153 141 148 155 135 94 93 193 211 325 13 89 122 315 269 281 13 157 221 258 231 223 209 203 212 214 203 195 195 189 178 178 181 184 185 184 188 193 195 198 199 198 197 197 197 195 192 189 189 190 190 191 192 194 193 186 184 182 175 170 167 164 165 162 157 155 145 136 124 114 124 141 145 148 158 155 280 240 166 156 145 118 103 105 108 120 150 176 183 186 195 196 179 182 193
238 201 135 136 140 137 127 96 83 354 96 295 326 31 102 247 273 323 40 125 230 251 229 225 218 209 209 207 203 197 195 192 190 189 184 185 187 185 187 191 195 199 200 197 194 192 191 187 185 187 190 192 192 191 191 192 192 185 180 176 167 164 173 175 173 169 159 156 150 143 143 141 135 135 151 165 163 159 240 220 171 169 146 122 113 107 103 100 103 121 148 163 165 155 136 115 152
212 151 104 63 64 73 80 92 97 32 58 234 289 358 106 257 288 330 34 130 235 247 237 226 218 215 210 205 202 194 187 188 196 195 187 187 186 184 187 189 193 199 201 198 194 191 188 187 188 191 193 192 190 188 186 183 184 183 181 180 173 169 179 186 184 177 165 161 155 149 147 145 146 149 161 175 172 165 187 169 166 170 154 141 138 125 115 111 108 112 116 120 121 118 114 104 108
131 110 68 47 33 27 39 56 82 63 6 253 268 306 121 228 284 265 232 239 242 263 277 251 216 213 210 204 201 190 179 179 183 183 176 175 178 181 184 186 190 196 199 200 197 194 193 192 192 193 193 190 187 185 183 180 181 186 189 189 184 180 183 188 188 181 173 172 166 157 153 148 149 155 160 169 170 165 160 149 157 167 158 146 141 128 119 115 113 113 107 105 106 103 104 105 105
102 83 72 75 8 9 27 0 48 91 267 259 270 279 137 155 255 237 263 280 277 269 274 270 229 217 210 200 195 183 168 163 162 165 162 155 161 172 178 183 186 188 196 201 199 199 199 197 197 195 190 187 185 182 180 178 179 187 195 195 189 186 187 188 187 181 177 179 178 169 161 155 152 155 155 157 158 156 154 157 168 177 169 160 151 132 123 121 118 118 112 105 102 100 102 104 104
80 84 83 94 23 14 31 318 17 163 240 263 303 301 170 206 223 209 250 276 280 259 254 256 243 235 218 185 173 154 143 153 158 161 164 159 161 165 172 179 180 185 195 200 201 203 203 203 201 193 182 181 181 179 179 179 182 191 197 197 192 186 185 188 187 183 184 186 184 179 170 162 161 157 154 153 152 154 157 169 186 187 182 177 167 144 127 122 122 122 118 110 103 100 101 102 105
127 136 125 119 103 84 191 265 330 231 243 286 319 311 249 262 265 253 269 277 280 280 271 240 224 222 185 145 133 120 120 132 137 136 142 156 163 165 173 176 176 183 192 197 202 206 208 207 197 178 171 179 183 183 184 183 185 189 195 200 197 186 189 207 189 198 235 215 193 187 179 167 168 164 160 159 154 153 155 165 178 172 169 164 150 140 131 127 129 130 124 116 110 107 106 105 105
167 157 129 140 155 142 185 214 168 197 236 315 316 302 172 201 283 303 297 304 314 331 353 54 120 122 118 113 110 111 111 113 119 112 98 86 111 156 171 169 167 181 191 196 202 209 211 202 174 160 166 171 177 178 175 175 181 189 195 196 192 191 218 224 168 168 252 238 213 202 193 170 170 171 170 174 169 163 158 143 151 142 135 131 123 125 131 134 138 137 132 124 117 115 114 110 106
212 132 109 150 180 140 131 173 165 163 139 14 279 228 206 208 280 309 330 357 356 9 29 58 76 83 94 95 95 100 94 86 88 93 98 87 72 109 161 159 164 184 196 197 201 210 210 186 148 153 151 146 158 167 170 186 202 205 201 192 185 193 221 222 190 192 231 234 224 220 213 184 173 176 180 187 189 192 194 155 146 130 116 112 110 112 118 131 140 140 137 130 122 123 121 113 111
166 120 157 213 172 119 109 126 41 80 122 204 258 262 300 336 323 319 7 19 0 8 28 53 75 88 93 92 92 90 80 69 50 19 39 106 102 117 159 166 178 194 202 202 205 212 207 166 134 136 135 150 177 196 203 200 202 204 197 190 188 193 208 214 210 219 229 224 223 227 224 209 190 188 192 196 200 206 204 181 139 112 103 96 99 104 105 115 127 130 132 128 125 128 125 117 115
128 173 198 190 103 97 103 108 21 50 142 250 336 289 296 30 170 311 16 31 349 353 17 47 62 79 88 80 83 93 91 91 79 3 299 92 104 117 185 195 200 205 209 211 212 212 200 149 133 137 158 191 200 206 205 195 195 199 196 195 196 199 209 214 220 231 228 219 225 235 233 227 215 210 206 204 206 208 206 202 197 136 97 87 86 100 108 111 118 124 129 129 130 134 131 126 124
118 166 164 114 120 138 95 120 134 110 163 267 340 324 259 187 213 292 22 194 304 348 18 66 77 88 94 85 77 93 102 102 104 198 272 356 73 51 294 226 206 202 211 215 209 199 173 144 141 150 185 209 207 203 202 197 198 202 202 203 202 204 212 217 223 226 219 214 220 228 233 234 229 230 223 214 210 208 209 212 216 223 204 126 97 102 118 120 115 118 125 128 131 138 135 130 129
46 76 50 40 129 154 152 138 150 144 155 209 320 352 270 224 215 221 240 242 226 178 79 109 118 118 128 140 134 117 119 118 129 194 261 42 63 51 344 332 129 183 203 206 193 177 158 148 149 159 186 209 211 205 203 204 205 203 204 206 205 208 212 218 224 220 214 214 211 210 221 230 232 238 235 225 218 213 213 219 224 228 228 219 206 188 168 158 143 127 127 129 130 136 136 130 129
68 56 40 20 67 117 144 94 95 127 139 169 164 260 267 252 221 230 264 260 221 183 148 131 116 79 70 175 128 111 127 129 129 136 80 55 60 63 52 42 56 95 171 181 175 167 158 157 160 169 188 206 211 209 207 210 209 204 204 205 207 208 210 216 219 214 212 215 209 203 207 212 219 234 240 238 230 222 218 220 226 230 232 230 222 218 217 208 200 186 165 154 149 150 150 144 141
137 125 148 148 124 123 125 114 280 109 121 163 158 185 262 273 276 277 284 269 228 170 115 79 18 63 27 352 75 87 93 118 113 104 81 65 68 77 79 73 71 78 109 152 166 161 157 162 168 177 193 203 206 210 210 210 210 207 207 208 209 211 214 218 215 211 212 216 211 203 201 205 210 221 236 243 240 233 228 227 229 233 236 238 234 229 230 231 228 222 213 201 185 178 178 175 169